[[{"header":{"parameterUnit":"m.s-1","parameterCategory":1,"la1":30.2991,"la2":30.254,"lo1":-89.0895,"lo2":-89.0444,"dy":0.0017,"dx":0.0017,"nx":28,"ny":28,"refTime":"2023-07-17T21:00:00:Z","depth":0,"parameterNumber":2,"parameterNumberName":"U-component_of_WINDS"},"data":[0,0,0,0,0,0,0,0,0,0,0,0,0,0,0,0,0,0,0,0,0,0,0,0,0,0,0,0,0,0,0,0,0,0,0,0,0,0,0,0,0,0,0,0,0,0,0,0,0,0,0,0,0,0,0,0,0,0,3.8401,3.8401,0,3.8432,3.8433,3.8433,3.8326,3.8323,3.832,3.8317,3.8347,3.8351,3.8354,0,0,0,0,0,0,0,0,0,0,0,0,0,3.8246,3.825,3.8401,3.8401,3.8402,3.8432,3.8433,3.8433,3.8327,3.8323,3.8319,3.8315,3.8346,3.835,3.8355,0,0,0,0,0,0,0,0,0,0,0,0,0,3.8299,3.8251,3.8401,3.8352,3.8348,3.8432,3.8433,3.8433,3.8327,3.8323,3.8318,3.8313,3.8344,3.835,3.8355,3.8487,0,0,3.8373,3.8375,0,0,0,0,0,0,0,0,3.8296,3.8305,3.8359,3.8356,3.8351,3.837,3.8389,3.8451,3.8329,3.8335,3.8316,3.8311,3.8359,3.8363,3.8379,3.8489,3.849,3.8373,3.8377,3.8379,3.8381,0,0,0,0,0,0,0,3.8293,3.8303,3.8413,3.836,3.8355,3.8328,3.833,3.84,3.8374,3.8334,3.8327,3.8332,3.8355,3.8374,3.8379,3.849,3.8373,3.8378,3.8382,3.8384,3.8707,3.8711,0,0,0,0,0,0,3.8296,3.8301,3.8412,3.8414,3.8312,3.8335,3.8337,3.8369,3.8372,3.8368,3.8336,3.8327,3.8367,3.8373,3.838,3.8532,3.8379,3.8385,3.8388,3.8702,3.8708,3.8713,0,0,0,0,0,0,3.8293,3.8307,3.8411,3.8355,3.8367,3.8343,3.8379,3.8372,3.839,3.8374,3.8368,3.836,3.8363,3.8372,3.8461,3.8531,3.8387,3.8392,3.8695,3.8703,3.8711,3.8838,0,0,0,0,0,0,3.8289,3.8306,3.8357,3.8357,3.837,3.8493,3.8384,3.8376,3.8401,3.8389,3.8395,3.8391,3.836,3.8453,3.8466,3.8536,3.8397,3.8689,3.8699,3.8708,3.8828,3.885,3.8868,0,0,0,0,0,3.8284,3.8392,3.836,3.8374,3.8433,3.8497,3.8504,3.8466,3.8407,3.8457,3.8446,3.8391,3.8522,3.8463,3.8477,3.855,3.8684,3.8696,3.8707,3.8819,3.8845,3.8868,0,0,0,0,0,0,3.84,3.8391,3.8355,3.8467,3.8484,3.8479,3.854,3.8496,3.853,3.8517,3.8469,3.8471,3.8568,3.8568,3.8502,3.8677,3.8593,3.8608,3.8672,3.8698,3.8717,3.8714,3.8401,0,0,0,0,0,3.8438,3.8492,3.8481,3.8581,3.8591,3.8565,3.8591,3.8561,3.8576,3.8582,3.8578,3.8594,3.8638,3.8668,3.8709,3.8828,3.8826,3.8886,3.8906,3.8922,3.8935,3.8996,3.9021,3.8751,3.8751,3.8751,0,0,3.8518,3.852,3.8557,3.8604,3.8613,3.8668,3.8571,3.8634,3.8674,3.8591,3.8674,3.8672,3.8687,3.8791,3.8837,3.8794,3.901,3.8937,3.8951,3.8954,3.901,3.9036,3.9058,3.8759,3.8758,3.8757,0,0,3.8691,3.87,3.8782,3.8793,3.8809,3.8791,3.8811,3.8813,3.8808,3.8891,3.8829,3.8876,3.8955,3.8967,3.8983,3.9161,3.9111,3.9176,3.9281,3.934,3.9361,3.938,3.9441,3.9463,3.9189,3.919,3.919,0,3.8788,3.887,3.883,3.8897,3.8918,3.8847,3.8929,3.8942,3.897,3.8986,3.8938,3.9034,3.9039,3.9144,3.9187,3.9204,3.9223,3.9174,3.9362,3.938,3.9397,3.9454,3.9477,3.9197,3.9196,3.9196,3.9195,0,3.8987,3.9045,3.9109,3.9138,3.9167,3.9242,3.9211,3.9246,3.9214,3.92,3.9285,3.9288,3.9327,3.935,3.932,3.9451,3.9423,3.937,3.9284,3.9431,3.9483,3.9505,3.9208,3.9205,3.9203,3.9201,0,0,3.9232,3.9238,3.9262,3.9273,3.9285,3.9328,3.9399,3.9437,3.9466,3.9488,3.9544,3.9613,3.9563,3.9582,3.9552,3.9605,3.9742,3.9544,3.9544,3.9578,3.9884,3.9921,3.9947,3.971,3.9714,3.9718,3.9881,0,3.9399,3.952,3.9486,3.9607,3.9658,3.9592,3.9653,3.9666,3.9656,3.9697,3.9686,3.9733,3.9666,3.9676,3.9726,3.9715,3.9802,3.9703,3.976,3.9762,3.9755,3.9975,4.0016,4.017,3.9902,3.9905,3.9908,0,3.9611,3.9641,3.9766,3.9768,3.9789,3.9844,3.9876,3.9917,3.9931,3.9919,3.9941,3.99,3.9968,3.9884,3.9976,3.9909,3.9931,3.9929,3.9934,3.9935,3.9842,3.9979,4.0218,4.024,3.9941,3.9938,3.9936,0,3.9772,3.9845,3.9928,3.9941,3.9946,3.9986,3.999,3.9999,4.0024,4.0052,4.0067,4.0103,4.0121,4.0149,4.0118,4.0061,4.0214,4.0129,4.0204,4.0205,4.0237,4.0235,4.0479,4.0257,4.0257,4.0256,4.0256,0,3.9961,4.004,4.0001,4.0052,4.0138,4.0098,4.0184,4.018,4.0189,4.0237,4.0183,4.0229,4.0188,4.023,4.0207,4.0285,4.0295,4.0286,4.0278,4.0289,4.0289,4.0299,4.0287,4.0262,4.0261,4.026,4.0259,0,4.0154,4.0132,4.0218,4.0217,4.0218,4.0281,4.0279,4.0326,4.0312,4.0374,4.0386,4.0365,4.0412,4.0385,4.0433,4.0417,4.0518,4.0497,4.0513,4.0506,4.0582,4.0574,4.0839,4.087,4.0632,4.0634,4.0636,0,4.0274,4.0333,4.0338,4.0367,4.0374,4.0422,4.0446,4.041,4.0438,4.0458,4.0502,4.0545,4.0576,4.0654,4.0642,4.0679,4.0656,4.0747,4.0661,4.0669,4.0653,4.0649,4.0653,4.0763,4.0765,4.0768,4.077,0,4.0488,4.0474,4.0512,4.0547,4.0579,4.0604,4.0625,4.0652,4.0615,4.065,4.0697,4.0722,4.0771,4.0813,4.0844,4.0847,4.0802,4.0797,4.0816,4.0826,4.0831,4.0826,4.0556,4.079,4.0788,4.0787,4.0786,4.0785,4.0646,4.0694,4.0705,4.0749,4.0761,4.0782,4.0825,4.0817,4.0856,4.0893,4.087,4.0926,4.0937,4.0974,4.0983,4.1024,4.0988,4.1016,4.1022,4.1029,4.1038,4.0828,4.1031,4.103,4.1029,4.1029,4.1028,0,4.0854,4.0858,4.0899,4.093,4.0964,4.0921,4.0942,4.0973,4.1022,4.1037,4.107,4.1124,4.1164,4.1156,4.1192,4.1228,4.1207,4.1238,4.1233,4.1234,4.107,4.1049,4.1253,4.1253,4.1253,4.1253,4.1253,4.1253,4.0966,4.1044,4.1032,4.1116,4.1119,4.1173,4.1188,4.1206,4.1217,4.128,4.1314,4.1309,4.1314,4.135,4.1385,4.1381,4.1396,4.1433,4.1422,4.1268,4.1246,4.1224,4.1204,4.1438,4.1438,4.1581,4.1582,4.1583]},{"header":{"parameterUnit":"m.s-1","parameterCategory":1,"la1":30.2991,"la2":30.254,"lo1":-89.0895,"lo2":-89.0444,"dy":0.0017,"dx":0.0017,"nx":28,"ny":28,"refTime":"2023-07-17T21:00:00:Z","depth":0,"parameterNumber":3,"parameterNumberName":"V-component_of_WINDS"},"data":[0,0,0,0,0,0,0,0,0,0,0,0,0,0,0,0,0,0,0,0,0,0,0,0,0,0,0,0,0,0,0,0,0,0,0,0,0,0,0,0,0,0,0,0,0,0,0,0,0,0,0,0,0,0,0,0,0,0,3.232,3.232,0,3.2355,3.2356,3.2356,3.2321,3.232,3.2318,3.2317,3.2352,3.2354,3.2356,0,0,0,0,0,0,0,0,0,0,0,0,0,3.2219,3.2221,3.232,3.232,3.2321,3.2355,3.2356,3.2356,3.2321,3.232,3.2318,3.2316,3.2351,3.2354,3.2357,0,0,0,0,0,0,0,0,0,0,0,0,0,3.2259,3.2222,3.232,3.2307,3.2307,3.2355,3.2356,3.2356,3.2322,3.232,3.2318,3.2316,3.235,3.2354,3.2357,3.2419,0,0,3.2367,3.2368,0,0,0,0,0,0,0,0,3.2257,3.2263,3.2309,3.2308,3.2308,3.2332,3.2333,3.2377,3.2322,3.2316,3.2317,3.2315,3.2347,3.235,3.2361,3.242,3.2422,3.2367,3.2369,3.2371,3.2372,0,0,0,0,0,0,0,3.2254,3.2261,3.2334,3.2309,3.2309,3.2299,3.2303,3.2341,3.2342,3.2316,3.2314,3.2319,3.2346,3.2358,3.2362,3.2422,3.2367,3.237,3.2372,3.2373,3.2531,3.2533,0,0,0,0,0,0,3.2253,3.2259,3.2333,3.2335,3.2277,3.2303,3.2307,3.2326,3.2342,3.2342,3.232,3.2317,3.2354,3.2358,3.2363,3.2435,3.2371,3.2374,3.2376,3.2529,3.2531,3.2534,0,0,0,0,0,0,3.2251,3.226,3.2331,3.2296,3.2305,3.2307,3.2329,3.2328,3.234,3.2345,3.2345,3.2333,3.2352,3.2358,3.2405,3.2435,3.2375,3.2378,3.2526,3.2529,3.2532,3.258,0,0,0,0,0,0,3.2249,3.226,3.2284,3.2297,3.2307,3.2373,3.2331,3.233,3.2346,3.2342,3.2357,3.2357,3.2351,3.24,3.2408,3.2439,3.2381,3.2523,3.2528,3.2531,3.2575,3.2584,3.2592,0,0,0,0,0,3.2245,3.2296,3.2285,3.2294,3.2337,3.2375,3.238,3.2373,3.2349,3.2372,3.2375,3.2357,3.2431,3.2405,3.2414,3.2446,3.2521,3.2526,3.2531,3.2572,3.2582,3.2591,0,0,0,0,0,0,3.2286,3.2298,3.2286,3.2343,3.2358,3.2369,3.2399,3.2385,3.2407,3.2402,3.2391,3.2395,3.2443,3.2449,3.242,3.2505,3.2472,3.2479,3.25,3.251,3.2518,3.2515,3.2384,0,0,0,0,0,3.2302,3.2333,3.234,3.239,3.2398,3.2397,3.2413,3.2406,3.2421,3.2428,3.2434,3.2449,3.2475,3.2493,3.2518,3.2576,3.2578,3.2602,3.2611,3.2617,3.2623,3.2652,3.2663,3.255,3.255,3.255,0,0,3.2335,3.2345,3.2365,3.2398,3.2409,3.244,3.2403,3.2437,3.246,3.2433,3.2476,3.2481,3.2497,3.2549,3.2572,3.2556,3.2655,3.2624,3.2629,3.2631,3.2658,3.2669,3.2679,3.2553,3.2553,3.2552,0,0,3.241,3.2421,3.2463,3.2474,3.2491,3.249,3.25,3.2513,3.2515,3.2559,3.2539,3.2564,3.2611,3.2622,3.2634,3.2712,3.2695,3.272,3.2763,3.2791,3.28,3.2808,3.2834,3.2844,3.2726,3.2726,3.2726,0,3.2449,3.2495,3.2486,3.2521,3.2536,3.2513,3.2553,3.2565,3.2589,3.2599,3.258,3.2637,3.2646,3.2699,3.2718,3.2729,3.2739,3.2718,3.2799,3.2807,3.2814,3.2839,3.2849,3.2729,3.2729,3.2728,3.2728,0,3.254,3.2572,3.2603,3.2627,3.2645,3.2683,3.2679,3.2698,3.2689,3.2689,3.2733,3.2743,3.2768,3.2781,3.2772,3.2832,3.2821,3.2801,3.2767,3.2828,3.2851,3.2861,3.2733,3.2732,3.2731,3.2731,0,0,3.2643,3.266,3.2672,3.2681,3.2697,3.2722,3.2758,3.2783,3.2799,3.2816,3.2845,3.2884,3.2865,3.2878,3.2871,3.2896,3.2954,3.2872,3.2872,3.2886,3.3019,3.3033,3.3044,3.2943,3.2945,3.2947,3.3017,0,3.2718,3.2781,3.2773,3.2833,3.2861,3.2839,3.287,3.2883,3.2884,3.2907,3.2908,3.2935,3.2909,3.2917,3.2941,3.2942,3.2981,3.2937,3.2969,3.297,3.2965,3.3057,3.3072,3.3138,3.3026,3.3028,3.3029,0,3.2813,3.2833,3.2896,3.2906,3.2917,3.2946,3.2967,3.299,3.3003,3.3002,3.3016,3.3004,3.3039,3.3004,3.3051,3.3022,3.3034,3.3037,3.3039,3.3041,3.3003,3.306,3.316,3.3169,3.3043,3.3042,3.3041,0,3.288,3.2923,3.2965,3.2974,3.2987,3.3007,3.3014,3.3025,3.304,3.3058,3.3067,3.309,3.3101,3.3118,3.3111,3.3087,3.3159,3.3125,3.3158,3.3158,3.3173,3.3172,3.3275,3.3183,3.3183,3.3183,3.3183,0,3.2963,3.3002,3.2995,3.3021,3.3063,3.3053,3.3095,3.3099,3.3109,3.3134,3.3116,3.314,3.313,3.3153,3.3148,3.3187,3.3193,3.3191,3.3189,3.3193,3.3193,3.32,3.3195,3.3186,3.3185,3.3185,3.3184,0,3.3045,3.3042,3.3086,3.3095,3.3098,3.3128,3.3135,3.3159,3.3158,3.319,3.3197,3.3196,3.3222,3.3217,3.3246,3.3242,3.329,3.3283,3.3285,3.3283,3.3316,3.3312,3.3426,3.344,3.3341,3.3342,3.3342,0,3.3098,3.3127,3.3138,3.3154,3.3162,3.3188,3.3202,3.3193,3.3209,3.3225,3.3247,3.3271,3.329,3.3333,3.3333,3.3355,3.3347,3.3386,3.335,3.3352,3.3346,3.3344,3.3346,3.3393,3.3394,3.3395,3.3395,0,3.3192,3.3188,3.321,3.3232,3.325,3.3266,3.3281,3.3294,3.3286,3.3305,3.3331,3.3346,3.3374,3.3398,3.3418,3.3423,3.3408,3.3407,3.3415,3.3418,3.3418,3.3417,3.3303,3.3404,3.3403,3.3402,3.3402,3.3402,3.326,3.3284,3.3295,3.332,3.3329,3.3343,3.3365,3.3367,3.3388,3.3411,3.3404,3.3434,3.3444,3.3469,3.3477,3.3499,3.3484,3.3497,3.35,3.3503,3.3506,3.3415,3.3503,3.3502,3.3502,3.3502,3.3502,0,3.3351,3.3357,3.338,3.34,3.3419,3.3403,3.3417,3.3434,3.346,3.3472,3.349,3.352,3.3542,3.3545,3.3566,3.3583,3.3576,3.3589,3.3587,3.3588,3.3519,3.3509,3.3594,3.3594,3.3594,3.3594,3.3594,3.3594,3.3401,3.344,3.3438,3.3481,3.3486,3.3515,3.3525,3.3536,3.3545,3.3579,3.3597,3.3599,3.3606,3.3627,3.3647,3.3647,3.3655,3.367,3.3667,3.3602,3.3593,3.3584,3.3575,3.3672,3.3672,3.3734,3.3734,3.3735]}]]